Regional Weather Roundup
Issued by NWS

Home | Current Version | Previous Version | Graphics & Text | Print | Product List | Glossary On
Versions: 1 2 3 4 5 6 7 8 9 10 11 12 13 14 15 16 17 18 19 20 21 22 23 24 25 26 27
000
ASUS45 KCYS 180510
RWRWY

WYOMING REGIONAL WEATHER ROUNDUP
NATIONAL WEATHER SERVICE CHEYENNE WY
1100 PM MDT THU APR 17 2014

NOTE:  "FAIR" INDICATES FEW OR NO CLOUDS BELOW 12,000 FEET
WITH NO SIGNIFICANT WEATHER AND/OR OBSTRUCTIONS TO VISIBILITY.

WYZ001-180600-
YELLOWSTONE NATIONAL PARK

CITY           SKY/WX    TMP DP  RH WIND       PRES   REMARKS
LK YELLOWSTONE   N/A     28  24  85 CALM      29.97F
W YELLOWSTONE  NOT AVBL

$$
WYZ002>013-054>058-071-098>099-180600-
NORTHERN WYOMING

CITY           SKY/WX    TMP DP  RH WIND       PRES   REMARKS
JACKSON        CLEAR     39  25  56 SW6       29.94F WCI  35
CODY           MOCLDY    52  25  35 SW14      29.84S
GREYBULL       CLOUDY    49  33  54 SE5       29.81F
WORLAND        CLOUDY    48  32  53 VRB3      29.82R
SHERIDAN       CLOUDY    44  35  70 SW5       29.81F
BUFFALO        CLOUDY    49  28  44 S9        29.85F
GILLETTE       CLOUDY    47  36  65 SE13      29.86F
HULETT         FAIR     N/A N/A N/A CALM      29.90
NEWCASTLE      FAIR      46  34  61 SE16G22   29.93

$$
WYZ014>020-022>026-101>103-180600-
CENTRAL WYOMING

CITY           SKY/WX    TMP DP  RH WIND       PRES   REMARKS
BIG PINEY      CLEAR     34  21  59 E5        30.01S WCI  30
PINEDALE       CLEAR     32  28  86 NW5       30.02S WCI  27
DUBOIS         FAIR      37  19  48 NW13      29.94F WCI  29
LANDER         PTCLDY    47  26  44 W8        29.89S
RIVERTON       PTCLDY    44  19  36 NW13      29.89F
CASPER         MOCLDY    42  29  59 SW8       29.89F
DOUGLAS        PTCLDY    44  34  67 SE10      29.91F

$$
WYZ021-027>030-104>119-180600-
SOUTHERN WYOMING

CITY           SKY/WX    TMP DP  RH WIND       PRES   REMARKS
EVANSTON       PTCLDY    47  23  38 S8        29.99F
KEMMERER       CLEAR     41  27  56 N6        30.01F
FORT BRIDGER   FAIR      48  24  38 SW5       30.02F
ROCK SPRINGS   CLEAR     46  20  35 SW10      30.01R
DIXON          FAIR      37  26  65 CALM      30.08R
RAWLINS        MOCLDY    47  18  31 W12       30.00F
SARATOGA       FAIR      43  21  42 S9        30.04F
LARAMIE        PTCLDY    35  24  64 S5        30.03R WCI  31
CHEYENNE       PTCLDY    42  26  53 SW8       30.00F
TORRINGTON     CLEAR     43  36  76 E5        29.93F
PINE BLUFFS    FAIR      45  34  65 S20G26    29.99F

$$



USA.gov is the U.S. government's official web portal to all federal, state and local government web resources and services.